Sparrow
1 43881U 18111F 21049.49831544 .00000896 00000-0 83248-4 0 9992
2 43881 97.6956 319.3325 0013566 134.1590 226.0749 14.96779925117297
Lume 1
1 43908U 18111AJ 21049.51222753 .00001410 00000-0 57694-4 0 9990
2 43908 97.2463 307.9676 0020750 357.6283 2.4854 15.25768302119534
FO-98
1 43933U 19003B 21049.57420623 .00007294 00000-0 30176-3 0 9992
2 43933 97.1992 95.5631 0019088 95.5001 264.8415 15.24070837115987
FO-99
1 43937U 19003F 21049.39831982 .00001515 00000-0 62591-4 0 9997
2 43937 97.1942 97.2778 0025211 76.0012 284.4027 15.25202707116115
Delphini 1
1 44030U 98067PW 21049.48607557 .00185393 24475-4 47760-3 0 9991
2 44030 51.6255 129.5619 0006318 345.5931 14.4896 15.94781136117284
MYSat 1
1 44045U 18092F 21049.47149802 .00003779 00000-0 10765-3 0 9996
2 44045 51.6379 286.2551 0011468 132.4868 227.7087 15.38618952113131
AstroCast 0.2
1 44083U 19018F 21049.73194991 .00000993 00000-0 46327-4 0 9994
2 44083 97.3895 112.9732 0013825 35.4539 324.7613 15.22103478104830
AISTechSat 3
1 44103U 19018AB 21049.81880345 .00000986 00000-0 43882-4 0 9996
2 44103 97.3758 113.3832 0014496 47.0994 45.7920 15.23717175104945
AISat 1
1 44104U 19018AC 21049.45782827 .00001149 00000-0 38257-4 0 9995
2 44104 97.4370 126.3744 0058648 59.7094 300.9932 15.31677753105453
Raavana-1
1 44329U 98067QE 21049.60270231 .00026013 00000-0 24435-3 0 9992
2 44329 51.6360 173.6284 0004602 212.5446 147.5267 15.66960476 95468
Uguisu
1 44330U 98067QF 21049.38116124 .00025516 00000-0 24216-3 0 9993
2 44330 51.6337 175.0846 0004626 209.8312 150.2421 15.66716118 95400
NepaliSat-1
1 44331U 98067QG 21049.33927307 .00025922 00000-0 24391-3 0 9997
2 44331 51.6334 174.8056 0004685 213.2327 146.8375 15.66920093 95417
Prox-1
1 44339U 19036A 21049.52326863 .00000988 00000-0 18340-3 0 9997
2 44339 24.0016 3.1310 0010131 321.0478 38.9283 14.53374206 87886
Oculus-ASR
1 44348U 19036K 21049.47168881 .00011146 00000-0 15503-3 0 9991
2 44348 28.5115 203.5089 0345407 62.5435 300.9841 15.08227056 90901
Armadillo
1 44352U 19036P 21049.50608120 .00017745 00000-0 23841-3 0 9990
2 44352 28.5270 189.7343 0322724 83.4872 280.2353 15.13684878 90992
NO-104
1 44354U 19036R 21049.54732606 .00011620 00000-0 15829-3 0 9996
2 44354 28.5265 197.7668 0341129 70.1466 293.5558 15.09542721 90954
NO-103
1 44355U 19036S 21049.50030747 .00029276 00000-0 35537-3 0 9994
2 44355 28.5258 169.8126 0297015 115.5307 247.6306 15.20992043 91241
CP9
1 44360U 19036X 21049.49850812 .00063838 -53194-5 56866-3 0 9999
2 44360 28.5088 128.9004 0247835 183.4971 176.3888 15.36488841 91522
Move-IIb
1 44398U 19038N 21049.63015716 .00001589 00000-0 92774-4 0 9990
2 44398 97.5668 14.3131 0024804 3.5329 356.6099 15.13153053 89792
SONATE
1 44400U 19038Q 21049.55777197 .00000783 00000-0 48727-4 0 9997
2 44400 97.5724 14.1954 0025299 2.8305 357.3065 15.12321417 89763
BeeSat 9
1 44412U 19038AC 21049.16980739 .00001261 00000-0 75024-4 0 9997
2 44412 97.5731 14.0037 0022708 9.4063 350.7588 15.12899657 89416
JAISAT-1
1 44419U 19038F 21049.11158499 .00001262 00000-0 74125-4 0 9991
2 44419 97.5735 14.3988 0021515 8.4089 351.7498 15.13383750 89747
LightSail-2
1 44420U 19036AC 21049.48021792 .00005430 00000-0 10986-2 0 9990
2 44420 24.0073 349.9780 0008378 303.4003 56.5687 14.58573632 86174
Taurus 1
1 44530U 19059C 21049.70804942 .00000636 00000-0 19126-3 0 9997
2 44530 98.5550 139.0612 0015660 139.8922 220.3430 14.45900132 75920
Duchifat 3
1 44854U 19089C 21049.46003688 .00000448 00000-0 42356-4 0 9993
2 44854 36.9679 84.2533 0008925 260.7570 99.2197 14.99331082 65236
OPS-SAT
1 44878U 19092F 21049.47505248 .00001220 00000-0 66640-4 0 9994
2 44878 97.4708 234.7411 0012944 218.4040 141.6273 15.16137589 64807
TO-108
1 44881U 19093C 21049.86167742 .00000057 00000-0 14060-4 0 9991
2 44881 97.9349 129.9337 0014125 323.2928 36.7307 14.81422566 63176
FloripaSat 1
1 44885U 19093G 21049.74526001 .00000266 00000-0 40073-4 0 9994
2 44885 97.9357 130.2342 0013893 332.3139 27.7339 14.82200964 63189
RS-44
1 44909U 19096E 21049.78998289 .00000028 00000-0 66322-4 0 9990
2 44909 82.5231 191.6405 0217488 10.8423 349.7256 12.79708483 53680
SwampSat-2
1 45115U 19071E 21049.35835705 .00022619 00000-0 49305-3 0 9990
2 45115 51.6372 244.9834 0009895 218.9941 141.0333 15.44109845 58987
HO-107
1 45119U 19071J 21049.43623765 .00002675 00000-0 88870-4 0 9995
2 45119 51.6410 253.6188 0011446 217.0466 142.9727 15.34897558 58880
Phoenix
1 45258U 98067RB 21049.44604546 .00008070 00000-0 12879-3 0 9998
2 45258 51.6397 203.3618 0005979 170.3350 189.7756 15.54169595 56687
AztechSat-1
1 45261U 98067RE 21049.80848434 .00019339 00000-0 25167-3 0 9992
2 45261 51.6380 196.7918 0006858 193.7791 166.3016 15.58754754 56823
QARMAN
1 45263U 98067RG 21049.70309468 .00014954 00000-0 21115-3 0 9999
2 45263 51.6384 199.8382 0006681 187.3630 172.7265 15.56776071 56813
Quetzal 1
1 45598U 98067RL 21049.81359777 .00012638 00000-0 18879-3 0 9990
2 45598 51.6398 202.0871 0002165 265.3543 94.7201 15.55421192 46061
BY70-2
1 45857U 20042B 21049.87569550 .00000916 00000-0 13824-3 0 9995
2 45857 97.9933 126.8444 0010419 228.3327 131.6975 14.76692355 34043
UPMSat 2
1 46276U 20061E 21049.44062493 .00000488 00000-0 28580-4 0 9999
2 46276 97.4447 125.5590 0002902 75.8595 284.2961 15.16278379 25504
AmicalSat
1 46287U 20061R 21049.45452860 .00000479 00000-0 33089-4 0 9993
2 46287 97.4998 125.2818 0003934 128.2334 231.9250 15.10232260 25386
SALSAT
1 46495U 20068K 21049.59004699 -.00000552 00000-0 -35991-4 0 9997
2 46495 97.6834 347.8722 0018278 109.9863 250.3333 15.03336025 21473
BY70-3
1 46839U 20079N 21049.74067759 .00002468 00000-0 80265-4 0 9994
2 46839 97.2524 125.9562 0005473 269.7003 207.1854 15.32821699 16018
SPOC
1 46921U 98067RR 21049.43197476 .00007564 00000-0 13093-3 0 9990
2 46921 51.6420 208.5368 0001756 3.5837 356.5165 15.51992369 16366
Bobcat-1
1 46922U 98067RS 21049.47395257 .00009721 00000-0 16219-3 0 9992
2 46922 51.6423 208.0716 0001350 6.3870 353.7137 15.52657650 16337
Neutron-1
1 46923U 98067RT 21049.50283261 .00007495 00000-0 13029-3 0 9990
2 46923 51.6416 208.2588 0001750 21.0820 339.0242 15.51886921 16408
CAPE 3
1 47309U 21002A 21049.42888797 .00001188 00000-0 66200-4 0 9993
2 47309 60.6889 16.7853 0020390 325.4070 34.5688 15.20353948 4780
OBJECT B
1 47310U 21002B 21049.48747436 .00001975 00000-0 10085-3 0 9998
2 47310 60.6877 16.5024 0018890 326.6466 33.3428 15.20722515 4780
AO-109
1 47311U 21002C 21049.47562763 .00000717 00000-0 43771-4 0 9998
2 47311 60.6868 16.4474 0016712 320.9296 39.0582 15.21251656 4764
OBJECT D
1 47312U 21002D 21049.47242985 .00005882 00000-0 26970-3 0 9999
2 47312 60.6881 16.4315 0017084 321.9879 38.0000 15.21558031 4755
OBJECT E
1 47313U 21002E 21049.33330926 .00002183 00000-0 10688-3 0 9998
2 47313 60.6857 16.8769 0018168 307.9824 51.9621 15.21816811 4749
MiTEE 1
1 47314U 21002F 21049.45239093 .00002288 00000-0 10970-3 0 9995
2 47314 60.6860 16.3205 0015627 303.4852 56.4741 15.22403068 4787
OBJECT G
1 47315U 21002G 21049.24837705 .00001567 00000-0 78195-4 0 9990
2 47315 60.6851 17.0223 0013050 302.7677 57.2151 15.22718056 4758
OBJECT J
1 47317U 21002J 21049.29584621 .00001025 00000-0 58693-4 0 9993
2 47317 60.6886 17.2691 0020169 324.5299 35.4444 15.20422407 4731
OBJECT K
1 47318U 21002K 21049.29520795 .00000985 00000-0 56817-4 0 9996
2 47318 60.6882 17.2656 0020108 324.0704 35.9028 15.20452214 4730
